EUTELSAT 70B

operational
NORAD ID: 39020 Int'l Des: 2012-069 Owner: EUTSA Country: F
HEOCIRCULARGSOGEO

关于 EUTELSAT 70B

正在加载描述...

实时位置

正在加载3D地球...

即将过境

高度历史

Altitude vs Time

uPlot chart will show altitude changes over time

两行轨道根数

1 39020U 12069A 26063.50799834 -.00000055 00000-0 00000+0 0 9994
2 39020 0.0657 339.0006 0002007 340.1276 96.5099 1.00273548 48456
Epoch: Mar 4, 2026 • Age: 19 hours

当前状态

高度 35793.8 km
速度 3.07 km/s
星下点 0.01°N, 70.52°E
发射日期 Dec 3, 2012
运行时间 13.2 years
类型 other

技术详情

分类 Payload
质量 5250.00 kg
干质量 2800.00 kg
总质量 5250.00 kg
长度 7.00 m
直径 2.50 m
跨度 30.00 m
形状 Box + 2 pan
制造商 ASTT
平台类型 Eurostar 3000
阶段状态 In Orbit
所有者/国家 EUTSA/F

大型星座

Loading constellations...